TimeEST,TemperatureF,Dew PointF,Humidity,Sea Level PressureIn,VisibilityMPH,Wind Direction,Wind SpeedMPH,Gust SpeedMPH,PrecipitationIn,Events,Conditions,WindDirDegrees,DateUTC
12:55 AM,25.7,9.9,51,30.04,10.0,Variable,4.6,-,N/A,,Overcast,0,2013-02-03 05:55:00
1:36 AM,24.8,12.2,59,30.04,7.0,WNW,4.6,-,N/A,Snow,Light Snow,290,2013-02-03 06:36:00
1:55 AM,24.1,14.9,68,30.03,5.0,WNW,6.9,-,0.00,Snow,Light Snow,300,2013-02-03 06:55:00
2:12 AM,23.0,15.8,74,30.04,3.0,WNW,3.5,-,N/A,Snow,Light Snow,290,2013-02-03 07:12:00
2:55 AM,22.6,18.0,82,30.02,4.0,Calm,Calm,-,0.00,Snow,Light Snow,0,2013-02-03 07:55:00
3:55 AM,22.5,18.9,86,29.99,5.0,North,4.6,-,0.00,Snow,Light Snow,350,2013-02-03 08:55:00
4:55 AM,22.3,18.3,85,29.99,7.0,Calm,Calm,-,0.00,Snow,Light Snow,0,2013-02-03 09:55:00
5:10 AM,21.2,17.6,86,29.99,8.0,Calm,Calm,-,N/A,,Overcast,0,2013-02-03 10:10:00
5:55 AM,21.4,18.3,88,29.99,8.0,Calm,Calm,-,0.00,,Overcast,0,2013-02-03 10:55:00
6:55 AM,19.0,16.3,89,29.97,10.0,North,3.5,-,N/A,,Mostly Cloudy,350,2013-02-03 11:55:00
7:55 AM,20.8,18.0,89,29.97,10.0,NNW,5.8,-,N/A,,Mostly Cloudy,330,2013-02-03 12:55:00
8:55 AM,21.7,15.3,76,29.98,10.0,NNW,5.8,-,N/A,,Overcast,330,2013-02-03 13:55:00
9:28 AM,21.2,14.0,74,29.96,10.0,NNW,10.4,-,N/A,Snow,Light Snow Showers,340,2013-02-03 14:28:00
9:55 AM,22.6,14.0,69,29.96,10.0,North,9.2,-,0.00,Snow,Light Snow,360,2013-02-03 14:55:00
10:42 AM,24.8,14.0,64,29.93,10.0,NNW,11.5,-,N/A,,Overcast,340,2013-02-03 15:42:00
10:55 AM,25.7,14.0,61,29.93,10.0,North,10.4,-,0.00,,Overcast,360,2013-02-03 15:55:00
11:55 AM,27.5,13.8,56,29.88,10.0,North,11.5,-,N/A,,Overcast,350,2013-02-03 16:55:00
12:17 PM,28.4,14.0,55,29.87,10.0,NNW,12.7,-,N/A,Snow,Light Snow Showers,330,2013-02-03 17:17:00
12:55 PM,28.0,14.0,56,29.84,10.0,North,10.4,-,0.00,Snow,Light Snow Showers,10,2013-02-03 17:55:00
1:55 PM,26.8,14.0,59,29.82,10.0,NNW,10.4,-,0.00,Snow,Light Snow,340,2013-02-03 18:55:00
2:55 PM,26.1,16.3,67,29.81,2.0,NNW,9.2,-,0.00,Snow,Light Snow,330,2013-02-03 19:55:00
3:36 PM,26.6,17.6,69,29.81,3.0,North,10.4,-,N/A,Snow,Light Snow,350,2013-02-03 20:36:00
3:55 PM,25.9,16.0,66,29.80,6.0,North,6.9,-,0.00,Snow,Light Snow,10,2013-02-03 20:55:00
4:55 PM,25.7,13.5,60,29.78,10.0,North,6.9,-,0.00,Snow,Light Snow,10,2013-02-03 21:55:00
5:26 PM,26.6,12.2,55,29.77,10.0,NNE,8.1,-,N/A,,Overcast,30,2013-02-03 22:26:00
7:55 PM,26.2,11.3,53,29.77,10.0,NNW,6.9,-,N/A,,Overcast,340,2013-02-04 00:55:00
8:55 PM,26.2,11.5,54,29.75,10.0,North,6.9,-,N/A,,Overcast,350,2013-02-04 01:55:00
9:55 PM,37.4,11.5,34,29.73,10.0,NW,8.1,-,N/A,,Overcast,310,2013-02-04 02:55:00
10:55 PM,25.3,11.8,57,29.72,10.0,WNW,6.9,-,N/A,,Overcast,300,2013-02-04 03:55:00
11:55 PM,24.6,12.2,59,29.70,10.0,West,5.8,-,N/A,,Overcast,270,2013-02-04 04:55:00